User: anonymous   Login
Location: Caltech
(34.1382°N, 118.1253°W)
Time: 05:22:43
(UTC-07:00)
Language:

Cosmos 676 Rocket - Orbit

View from above orbital plane
View from above orbital plane
View from above satellite
View from above satellite

Ground track
Ground track

The orbit data is extracted from the following two-line orbital elements,

1 07434U 74071B   16209.85797288  .00000039  00000-0  22169-4 0  9995
2 07434  74.0471  89.6218 0019751  80.0657 280.2724 14.36578044190137
Epoch (UTC): 27 July 2016 20:35:28
Eccentricity: 0.0019751
inclination: 74.0471°
perigee height: 756 km
apogee height: 784 km
right ascension of ascending node: 89.6218°
argument of perigee: 80.0657°
revolutions per day: 14.36578044
mean anomaly at epoch: 280.2724°
orbit number at epoch: 19013

The dashed part of the orbit path shows where the satellite is in the earth's shadow,  

DLR